Location: eljas
(40.1958°N, 6.8661°W)
Time: 04:33:18
(UTC+01:00)

Amateur Radio Satellites - All Passes

Search period start: 29 November 2014 04:03
Search period end: 30 November 2014 04:03
Location: eljas, 40.1958°N, 6.8661°W

Satellite Date Start Highest point End Downlink Frequencies (MHz)
Time Altitude Azimuth
RS-15 29 Nov 04:03:06 04:12:16 30° 256° (WSW) 04:21:47 29.354- 29.394
BEESAT 3 29 Nov 04:05:47 04:07:38 13° 41° (NE) 04:09:28 437.485
HORYU 2 29 Nov 04:14:10 04:18:15 34° 98° (E) 04:22:20 437.375
Oscar 19 29 Nov 04:20:54 04:24:43 21° 296° (WNW) 04:28:32 437.125/150
BEESAT 2 29 Nov 04:23:12 04:25:52 16° 43° (NE) 04:28:30 435.950
Gurwin Techsat 1B 29 Nov 04:30:34 04:35:52 73° 286° (WNW) 04:41:08 435.225
MOZHAYETS 4 29 Nov 04:31:27 04:34:25 17° 65° (ENE) 04:37:23
YUBILEINY 29 Nov 04:37:36 04:45:59 48° 285° (WNW) 04:54:24 435.215
KKS-1 29 Nov 04:44:17 04:44:51 10° 270° (W) 04:45:25 437.445
ISS 29 Nov 04:53:58 04:56:39 22° 23° (NNE) 04:59:19 145.825
SO-50 29 Nov 05:03:19 05:07:34 39° 309° (NW) 05:11:57 436.795
AIST 2 29 Nov 05:11:05 05:14:32 23° 47° (NE) 05:17:57 435.215
PCSat 29 Nov 05:19:33 05:24:57 64° 59° (ENE) 05:30:19 145.827
ITAMSAT 1 29 Nov 05:21:34 05:24:34 16° 299° (WNW) 05:27:34 435.822/435.867
AO-7 29 Nov 05:23:11 05:31:18 52° 102° (ESE) 05:39:23 29.400- 29.500
BEESAT 3 29 Nov 05:42:14 05:46:27 86° 239° (WSW) 05:50:36 437.485
HORYU 2 29 Nov 05:51:14 05:54:44 23° 293° (WNW) 05:58:14 437.375
BEESAT 2 29 Nov 06:00:23 06:04:33 61° 242° (WSW) 06:08:38 435.950
O/OREOS (USA 219) 29 Nov 06:04:43 06:08:44 33° 105° (ESE) 06:12:46 437.305
JAS-2 29 Nov 06:05:52 06:12:11 38° 95° (E) 06:17:47 435.910
MOZHAYETS 4 29 Nov 06:06:48 06:11:14 48° 261° (W) 06:15:44
PRISM 29 Nov 06:10:28 06:14:15 33° 70° (ENE) 06:18:04 437.425
CUBESAT XI-V 29 Nov 06:21:32 06:24:45 18° 65° (ENE) 06:27:57 437.345
STRAND 1 29 Nov 06:29:37 06:33:40 24° 65° (ENE) 06:37:43 437.568
ISS 29 Nov 06:30:15 06:33:30 56° 221° (SW) 06:36:43 145.825
AIST 1 29 Nov 06:41:39 06:44:17 15° 71° (ENE) 06:46:52
Cubesat XI-IV 29 Nov 06:45:08 06:48:52 19° 93° (E) 06:52:34 437.490
AIST 2 29 Nov 06:49:18 06:53:18 38° 245° (WSW) 06:57:14 435.215
PCSat 29 Nov 07:04:25 07:07:47 17° 256° (WSW) 07:11:10 145.827
AO-7 29 Nov 07:16:23 07:23:47 37° 300° (WNW) 07:31:11 29.400- 29.500
CUTE-I 29 Nov 07:24:36 07:29:40 44° 99° (E) 07:34:42 437.470
O/OREOS (USA 219) 29 Nov 07:44:37 07:48:11 23° 302° (WNW) 07:51:46 437.305
PRISM 29 Nov 07:46:47 07:49:52 20° 266° (W) 07:52:59 437.425
JAS-2 29 Nov 07:50:56 07:57:08 36° 295° (WNW) 08:02:40 435.910
CUBESAT XI-V 29 Nov 07:57:16 08:01:49 47° 261° (W) 08:06:23 437.345
STRAND 1 29 Nov 08:07:45 08:12:35 41° 261° (W) 08:17:27 437.568
AIST 1 29 Nov 08:18:03 08:22:11 43° 268° (W) 08:26:16
Cubesat XI-IV 29 Nov 08:24:05 08:29:14 52° 289° (WNW) 08:34:22 437.490
GONETS M04 29 Nov 08:32:01 08:40:03 42° 87° (E) 08:48:08
CUTE-I 29 Nov 09:05:18 09:09:27 24° 295° (WNW) 09:13:34 437.470
SEEDS 29 Nov 09:31:42 09:34:16 16° 92° (E) 09:36:49 437.485
BRITE-PL 29 Nov 09:36:48 09:39:49 19° 94° (E) 09:42:53 437.365/2234.400
AAUSAT CUBESAT 2 29 Nov 09:41:50 09:44:15 15° 92° (E) 09:46:40 437.432
HO-68 29 Nov 09:56:49 10:03:38 44° 99° (E) 10:10:22 435.675
COMPASS 1 29 Nov 09:58:33 10:02:08 26° 95° (E) 10:05:43 437.405
CANX-2 29 Nov 10:03:17 10:07:25 44° 99° (E) 10:11:32 2200.000
ANTELSAT 29 Nov 10:07:42 10:09:49 14° 64° (ENE) 10:11:56 437.575/2403.000
NANOSAT C BR1 29 Nov 10:13:11 10:13:48 10° 62° (ENE) 10:14:25 145.865
DX 1 29 Nov 10:21:14 10:24:08 17° 93° (E) 10:27:02 434.975-435.025
QB50P1 29 Nov 10:22:02 10:24:05 13° 64° (ENE) 10:26:08 145.935-145.965
UWE-3 29 Nov 10:26:17 10:27:52 12° 91° (E) 10:29:27 435.000/436.395/437.385
GOMX 1 29 Nov 10:28:25 10:32:31 53° 100° (E) 10:36:46 467.674
GONETS M04 29 Nov 10:28:33 10:36:47 43° 286° (WNW) 10:45:06
CUBEBUG 2 29 Nov 10:32:07 10:34:52 16° 93° (E) 10:37:39 437.445
CUTE 1.7 + AOD 2 29 Nov 10:37:22 10:41:41 81° 284° (WNW) 10:45:59 437.475
POPSAT HIP 1 29 Nov 10:45:45 10:49:10 24° 68° (ENE) 10:52:34 437.405
ZACube-1 29 Nov 10:52:22 10:55:33 20° 94° (E) 10:58:46 437.345
TIGRISAT 29 Nov 10:57:19 11:01:22 45° 72° (ENE) 11:05:26 435.000
DELFI C3 29 Nov 11:03:56 11:08:00 53° 100° (E) 11:12:03 145.870
VELOX 1 29 Nov 11:06:00 11:08:54 17° 93° (E) 11:11:47 145.980
SEEDS 29 Nov 11:06:14 11:10:18 43° 287° (WNW) 11:14:21 437.485
DOVE 4 29 Nov 11:08:33 11:12:45 72° 284° (WNW) 11:17:06 437.250
50 SAT 29 Nov 11:11:58 11:14:24 15° 93° (E) 11:16:51 437.505
UNISAT 6 29 Nov 11:12:43 11:16:57 70° 75° (ENE) 11:21:13 437.425
BRITE-PL 29 Nov 11:14:44 11:18:25 32° 289° (WNW) 11:22:11 437.365/2234.400
AAUSAT CUBESAT 2 29 Nov 11:16:06 11:20:09 44° 287° (WNW) 11:24:11 437.432
UKube-1 29 Nov 11:17:09 11:21:30 73° 103° (ESE) 11:25:48 .
CINEMA 3 29 Nov 11:19:10 11:23:27 90° 103° (ESE) 11:27:53 145.822/145.860
POLYITAN 1 29 Nov 11:20:32 11:24:43 59° 74° (ENE) 11:28:54 437.675
QB50P2 29 Nov 11:21:08 11:25:19 60° 74° (ENE) 11:29:31 145.880/145.840
DUCHIFAT 1 29 Nov 11:24:51 11:29:03 65° 75° (ENE) 11:33:16 145.980
FUNcube-1 29 Nov 11:25:42 11:29:49 47° 99° (E) 11:34:01 145.935
Oscar 11 29 Nov 11:25:52 11:30:13 73° 285° (WNW) 11:34:33 145.826/435.025
AISAT 29 Nov 11:33:30 11:37:34 35° 98° (E) 11:41:35 437.250
COMPASS 1 29 Nov 11:34:16 11:37:47 26° 291° (WNW) 11:41:18 437.405
CUBEBUG 1 29 Nov 11:35:21 11:37:10 12° 91° (E) 11:38:59 437.445
CANX-2 29 Nov 11:40:20 11:42:59 16° 294° (WNW) 11:45:39 2200.000
ANTELSAT 29 Nov 11:42:01 11:46:10 53° 260° (W) 11:50:22 437.575/2403.000
HO-68 29 Nov 11:44:47 11:51:09 36° 297° (WNW) 11:57:30 435.675
NANOSAT C BR1 29 Nov 11:44:50 11:49:05 73° 258° (WSW) 11:53:20 145.865
HUMSAT D 29 Nov 11:45:10 11:49:14 46° 99° (E) 11:53:18 437.325/437.525
BUGSAT 1 29 Nov 11:47:40 11:51:55 82° 257° (WSW) 11:56:09 437.445
SO-50 29 Nov 11:55:04 11:58:57 23° 45° (NE) 12:02:51 436.795
QB50P1 29 Nov 11:55:21 11:59:31 54° 260° (W) 12:03:41 145.935-145.965
DX 1 29 Nov 11:56:29 12:00:32 39° 289° (WNW) 12:04:34 434.975-435.025
UWE-3 29 Nov 12:00:32 12:04:44 58° 286° (WNW) 12:09:02 435.000/436.395/437.385
CUBEBUG 2 29 Nov 12:07:42 12:11:44 41° 288° (WNW) 12:15:52 437.445
GOMX 1 29 Nov 12:08:22 12:10:16 13° 295° (WNW) 12:12:11 467.674
POPSAT HIP 1 29 Nov 12:21:16 12:24:57 28° 264° (W) 12:28:37 437.405
TISAT 1 29 Nov 12:25:42 12:26:14 10° 90° (E) 12:26:46 437.305
ZACube-1 29 Nov 12:28:08 12:31:59 33° 289° (WNW) 12:35:53 437.345
TIGRISAT 29 Nov 12:36:04 12:38:23 14° 268° (W) 12:40:42 435.000
DELFI C3 29 Nov 12:40:56 12:42:50 13° 296° (WNW) 12:44:45 145.870
VELOX 1 29 Nov 12:41:31 12:45:41 41° 289° (WNW) 12:49:49 145.980
SPROUT 29 Nov 12:44:30 12:47:12 16° 93° (E) 12:49:54 437.525
50 SAT 29 Nov 12:46:04 12:49:52 39° 288° (WNW) 12:53:42 437.505
ESTCUBE 1 29 Nov 12:52:18 12:56:52 85° 284° (WNW) 13:01:23 437.505/2401.250
YUBILEINY 29 Nov 12:53:13 12:58:29 17° 61° (ENE) 13:03:43 435.215
UKube-1 29 Nov 12:56:01 12:57:03 11° 299° (WNW) 12:58:04 .
POLYITAN 1 29 Nov 12:59:48 13:01:02 11° 269° (W) 13:02:16 437.675
QB50P2 29 Nov 13:00:29 13:01:37 11° 270° (W) 13:02:46 145.880/145.840
FUNcube-1 29 Nov 13:03:19 13:05:49 15° 294° (WNW) 13:08:21 145.935
CUBEBUG 1 29 Nov 13:09:37 13:13:53 55° 286° (WNW) 13:18:07 437.445
AISAT 29 Nov 13:10:39 13:13:59 21° 294° (WNW) 13:17:17 437.250
HUMSAT D 29 Nov 13:22:17 13:24:40 15° 295° (WNW) 13:27:03 437.325/437.525
ITAMSAT 1 29 Nov 13:22:18 13:24:23 12° 59° (ENE) 13:26:28 435.822/435.867
SO-50 29 Nov 13:35:02 13:39:47 51° 243° (WSW) 13:44:31 436.795
AUBIESAT-1 29 Nov 13:40:44 13:41:50 11° 93° (E) 13:42:55 437.475
VERMONT LUNAR 29 Nov 13:40:56 13:43:44 21° 150° (SSE) 13:46:32 437.305
PHONESAT 2.4 29 Nov 13:44:51 13:47:18 17° 147° (SSE) 13:49:45 2401.200-2431.200
M-CUBED/EXP-1 PRIME 29 Nov 13:47:06 13:49:47 15° 95° (E) 13:52:24 437.505
BEESAT 29 Nov 13:50:40 13:53:21 15° 91° (E) 13:56:02 436.000
Oscar 19 29 Nov 13:57:02 14:02:05 65° 73° (ENE) 14:07:10 437.125/150
TISAT 1 29 Nov 13:58:19 14:02:29 62° 286° (WNW) 14:06:37 437.305
CUSAT 1 29 Nov 14:06:05 14:08:39 53° 281° (W) 14:11:15 437.405
Gurwin Techsat 1B 29 Nov 14:12:56 14:16:53 22° 64° (ENE) 14:20:50 435.225
SPROUT 29 Nov 14:19:27 14:23:29 41° 288° (WNW) 14:27:29 437.525
AO-7 29 Nov 14:34:04 14:38:14 15° 47° (NE) 14:42:24 29.400- 29.500
MaSat-1 29 Nov 14:44:14 14:45:41 13° 108° (ESE) 14:47:05 437.345
ITUPSAT 1 29 Nov 14:46:59 14:51:44 56° 101° (E) 14:56:25 437.325
YUBILEINY 29 Nov 14:47:56 14:56:41 85° 83° (E) 15:05:22 435.215
DANDE 29 Nov 14:49:04 14:50:40 15° 286° (WNW) 14:52:16 436.750
SWISSCUBE 29 Nov 14:56:27 15:01:16 78° 103° (ESE) 15:06:02 437.505
KKS-1 29 Nov 14:56:54 14:59:15 14° 92° (E) 15:01:35 437.445
ITAMSAT 1 29 Nov 14:57:53 15:03:07 86° 256° (WSW) 15:08:22 435.822/435.867
AUBIESAT-1 29 Nov 15:12:27 15:17:23 83° 289° (WNW) 15:22:06 437.475
HORYU 2 29 Nov 15:12:33 15:16:23 30° 69° (ENE) 15:20:14 437.375
VERMONT LUNAR 29 Nov 15:18:15 15:21:51 69° 166° (SSE) 15:25:27 437.305
M-CUBED/EXP-1 PRIME 29 Nov 15:20:19 15:25:13 64° 291° (WNW) 15:29:55 437.505
PHONESAT 2.4 29 Nov 15:22:00 15:25:38 59° 163° (SSE) 15:29:18 2401.200-2431.200
BEESAT 29 Nov 15:26:50 15:31:32 56° 287° (WNW) 15:36:12 436.000
Oscar 19 29 Nov 15:39:13 15:41:52 14° 269° (W) 15:44:31 437.125/150
STARS 29 Nov 15:43:47 15:47:41 31° 97° (E) 15:51:34 437.465
Gurwin Techsat 1B 29 Nov 15:51:21 15:56:28 49° 261° (W) 16:01:38 435.225
RS-15 29 Nov 16:12:36 16:22:58 51° 111° (ESE) 16:33:17 29.354- 29.394
O/OREOS (USA 219) 29 Nov 16:14:42 16:19:08 60° 66° (ENE) 16:23:34 437.305
JAS-2 29 Nov 16:17:04 16:22:33 22° 58° (ENE) 16:28:02 435.910
MaSat-1 29 Nov 16:17:45 16:19:56 20° 300° (WNW) 16:22:00 437.345
AO-7 29 Nov 16:21:17 16:29:26 66° 67° (ENE) 16:37:40 29.400- 29.500
ITUPSAT 1 29 Nov 16:26:13 16:29:09 16° 297° (WNW) 16:32:04 437.325
KKS-1 29 Nov 16:31:52 16:36:11 51° 287° (WNW) 16:40:28 437.445
SWISSCUBE 29 Nov 16:36:40 16:38:27 12° 300° (WNW) 16:40:14 437.505
YUBILEINY 29 Nov 16:46:51 16:52:17 19° 282° (WNW) 16:57:43 435.215
HORYU 2 29 Nov 16:49:26 16:53:02 24° 265° (W) 16:56:40 437.375
AUBIESAT-1 29 Nov 16:50:06 16:51:31 11° 306° (NW) 16:52:56 437.475
VERMONT LUNAR 29 Nov 16:56:42 17:00:20 84° 2° (N) 17:03:58 437.305
PHONESAT 2.4 29 Nov 17:00:41 17:04:24 83° 360° (N) 17:08:08 2401.200-2431.200
STARS 29 Nov 17:20:31 17:24:01 24° 293° (WNW) 17:27:30 437.465
O/OREOS (USA 219) 29 Nov 17:56:14 17:57:58 12° 262° (W) 17:59:42 437.305
JAS-2 29 Nov 17:58:51 18:06:35 87° 256° (WSW) 18:14:29 435.910
MOZHAYETS 4 29 Nov 18:02:38 18:07:03 41° 98° (E) 18:11:26
Cubesat XI-IV 29 Nov 18:06:23 18:11:02 31° 67° (ENE) 18:15:41 437.490
AO-7 29 Nov 18:16:04 18:22:44 27° 265° (W) 18:29:29 29.400- 29.500
RS-15 29 Nov 18:24:52 18:35:19 49° 314° (NW) 18:45:54 29.354- 29.394
VERMONT LUNAR 29 Nov 18:35:12 18:38:44 51° 199° (SSW) 18:42:15 437.305
PHONESAT 2.4 29 Nov 18:39:30 18:43:11 62° 196° (SSW) 18:46:51 2401.200-2431.200
GONETS M04 29 Nov 18:43:34 18:49:36 20° 63° (ENE) 18:55:33
CUTE-I 29 Nov 18:45:52 18:51:11 69° 74° (ENE) 18:56:31 437.470
PRISM 29 Nov 19:29:21 19:33:33 61° 101° (E) 19:37:42 437.425
BEESAT 3 29 Nov 19:37:41 19:40:44 21° 111° (ESE) 19:43:50 437.485
MOZHAYETS 4 29 Nov 19:40:36 19:43:58 20° 294° (WNW) 19:47:20
Cubesat XI-IV 29 Nov 19:46:13 19:51:01 33° 263° (W) 19:55:51 437.490
JAS-2 29 Nov 19:47:53 19:52:29 17° 273° (W) 19:57:11 435.910
CUBESAT XI-V 29 Nov 19:54:45 19:59:13 45° 99° (E) 20:03:38 437.345
BEESAT 2 29 Nov 19:55:44 19:59:18 29° 114° (ESE) 20:02:55 435.950
PCSat 29 Nov 20:00:29 20:05:49 67° 115° (ESE) 20:11:13 145.827
VERMONT LUNAR 29 Nov 20:14:49 20:16:42 14° 214° (SW) 20:18:34 437.305
STRAND 1 29 Nov 20:18:32 20:23:39 70° 102° (ESE) 20:28:42 437.568
PHONESAT 2.4 29 Nov 20:18:57 20:21:34 18° 212° (SSW) 20:24:10 2401.200-2431.200
HO-68 29 Nov 20:25:11 20:31:22 32° 62° (ENE) 20:37:33 435.675
SEEDS 29 Nov 20:25:38 20:26:45 11° 63° (ENE) 20:27:53 437.485
CUTE-I 29 Nov 20:28:56 20:31:44 14° 269° (W) 20:34:32 437.470
AAUSAT CUBESAT 2 29 Nov 20:35:18 20:35:44 10° 62° (ENE) 20:36:10 437.432
GONETS M04 29 Nov 20:38:45 20:47:37 87° 264° (W) 20:56:23
DOVE 4 29 Nov 20:40:46 20:41:10 10° 63° (ENE) 20:41:35 437.250
RS-15 29 Nov 20:43:42 20:51:20 21° 345° (NNW) 20:59:07 29.354- 29.394
AIST 1 29 Nov 20:46:34 20:50:57 72° 278° (W) 20:55:23
AIST 2 29 Nov 20:46:52 20:50:56 51° 117° (ESE) 20:55:06 435.215
BRITE-PL 29 Nov 20:47:09 20:51:03 25° 69° (ENE) 20:54:44 437.365/2234.400
COMPASS 1 29 Nov 20:50:45 20:53:33 18° 66° (ENE) 20:56:22 437.405
CANX-2 29 Nov 20:56:18 20:59:59 30° 70° (ENE) 21:03:41 2200.000
PRISM 29 Nov 21:06:54 21:08:34 12° 298° (WNW) 21:10:13 437.425
BEESAT 3 29 Nov 21:14:55 21:18:43 36° 308° (NW) 21:22:35 437.485
DX 1 29 Nov 21:17:10 21:19:47 16° 64° (ENE) 21:22:25 434.975-435.025
CUTE 1.7 + AOD 2 29 Nov 21:29:50 21:34:01 67° 75° (ENE) 21:38:14 437.475
CUBEBUG 2 29 Nov 21:31:32 21:33:34 13° 65° (ENE) 21:35:35 437.445
CUBESAT XI-V 29 Nov 21:33:07 21:36:18 19° 295° (WNW) 21:39:27 437.345
BEESAT 2 29 Nov 21:34:00 21:37:33 27° 311° (NW) 21:41:09 435.950
GOMX 1 29 Nov 21:36:08 21:40:43 57° 74° (ENE) 21:45:01 467.674
PCSat 29 Nov 21:45:47 21:49:44 20° 314° (NW) 21:53:43 145.827
ZACube-1 29 Nov 21:49:20 21:51:47 15° 65° (ENE) 21:54:14 437.345
DELFI C3 29 Nov 21:52:32 21:56:08 31° 71° (ENE) 21:59:46 145.870
SEEDS 29 Nov 21:57:51 22:02:01 66° 259° (W) 22:06:13 437.485
STRAND 1 29 Nov 21:59:29 22:02:13 15° 299° (WNW) 22:04:57 437.568
VELOX 1 29 Nov 22:04:08 22:06:51 16° 64° (ENE) 22:09:34 145.980
AAUSAT CUBESAT 2 29 Nov 22:06:40 22:10:48 71° 258° (WSW) 22:15:00 437.432
UKube-1 29 Nov 22:11:42 22:15:58 58° 73° (ENE) 22:20:15 .
HO-68 29 Nov 22:11:51 22:18:46 50° 260° (W) 22:25:44 435.675
DOVE 4 29 Nov 22:13:53 22:18:25 75° 258° (WSW) 22:22:44 437.250
Oscar 11 29 Nov 22:19:59 22:24:17 81° 76° (ENE) 22:28:37 145.826/435.025
CINEMA 3 29 Nov 22:20:47 22:25:06 78° 76° (ENE) 22:29:19 145.822/145.860
FUNcube-1 29 Nov 22:21:43 22:25:29 34° 71° (ENE) 22:29:15 145.935
BRITE-PL 29 Nov 22:25:05 22:29:27 32° 263° (W) 22:33:34 437.365/2234.400
COMPASS 1 29 Nov 22:25:08 22:29:00 37° 262° (W) 22:32:55 437.405
AIST 2 29 Nov 22:26:50 22:29:52 19° 315° (NW) 22:32:56 435.215
AISAT 29 Nov 22:31:27 22:35:23 31° 69° (ENE) 22:39:18 437.250
CUBEBUG 1 29 Nov 22:32:25 22:33:47 11° 62° (ENE) 22:35:09 437.445
CANX-2 29 Nov 22:32:41 22:35:56 22° 266° (W) 22:39:13 2200.000
HUMSAT D 29 Nov 22:37:27 22:41:05 31° 70° (ENE) 22:44:42 437.325/437.525
GONETS M04 29 Nov 22:38:10 22:43:02 16° 284° (WNW) 22:47:55
DX 1 29 Nov 22:51:23 22:55:38 48° 260° (W) 22:59:53 434.975-435.025
TIGRISAT 29 Nov 22:52:40 22:53:09 10° 90° (E) 22:53:38 435.000
UWE-3 29 Nov 22:57:27 23:01:39 76° 258° (WSW) 23:05:50 435.000/436.395/437.385
RS-15 29 Nov 23:00:59 23:09:22 23° 22° (NNE) 23:17:57 29.354- 29.394
CUSAT 1 29 Nov 23:02:57 23:03:58 10° 70° (ENE) 23:05:02 437.405
CUBEBUG 2 29 Nov 23:05:44 23:09:51 51° 260° (W) 23:13:56 437.445
UNISAT 6 29 Nov 23:06:30 23:09:16 16° 93° (E) 23:12:04 437.425
QB50P2 29 Nov 23:10:44 23:11:08 10° 90° (E) 23:11:32 145.880/145.840
ISS 29 Nov 23:11:09 23:14:24 61° 140° (SE) 23:17:39 145.825
DUCHIFAT 1 29 Nov 23:13:26 23:14:31 11° 90° (E) 23:15:35 145.980
GOMX 1 29 Nov 23:17:00 23:19:06 13° 268° (W) 23:21:10 467.674
ZACube-1 29 Nov 23:23:49 23:27:49 43° 261° (W) 23:31:48 437.345
DELFI C3 29 Nov 23:28:32 23:31:29 19° 266° (W) 23:34:28 145.870
NANOSAT C BR1 29 Nov 23:31:52 23:34:51 19° 94° (E) 23:37:50 145.865
BUGSAT 1 29 Nov 23:32:32 23:34:49 15° 92° (E) 23:37:04 437.445
50 SAT 29 Nov 23:34:06 23:38:06 67° 259° (WSW) 23:42:07 437.505
ANTELSAT 29 Nov 23:34:42 23:38:45 32° 97° (E) 23:42:52 437.575/2403.000
VELOX 1 29 Nov 23:38:42 23:43:02 49° 260° (W) 23:47:23 145.980
SPROUT 29 Nov 23:39:33 23:41:33 13° 64° (ENE) 23:43:33 437.525
QB50P1 29 Nov 23:41:58 23:45:26 24° 95° (E) 23:48:52 145.935-145.965
DANDE 29 Nov 23:43:51 23:47:45 22° 75° (ENE) 23:52:30 436.750
UKube-1 29 Nov 23:50:49 23:52:29 12° 269° (W) 23:54:10 .
ESTCUBE 1 29 Nov 23:51:22 23:55:55 83° 76° (ENE) 00:00:30 437.505/2401.250
FUNcube-1 29 Nov 23:59:02 00:01:56 18° 266° (W) 00:04:51 145.935
CUBEBUG 1 30 Nov 00:05:07 00:09:33 73° 258° (WSW) 00:14:00 437.445
POPSAT HIP 1 30 Nov 00:06:52 00:10:57 46° 99° (E) 00:15:01 437.405
AISAT 30 Nov 00:08:24 00:12:01 24° 265° (W) 00:15:38 437.250
HUMSAT D 30 Nov 00:13:54 00:16:56 20° 266° (W) 00:19:59 437.325/437.525
MaSat-1 30 Nov 00:21:25 00:22:55 15° 59° (ENE) 00:24:28 437.345
TIGRISAT 30 Nov 00:25:52 00:30:19 72° 285° (WNW) 00:34:52 435.000
AUBIESAT-1 30 Nov 00:29:03 00:31:10 13° 56° (NE) 00:33:21 437.475
M-CUBED/EXP-1 PRIME 30 Nov 00:36:22 00:39:11 17° 58° (ENE) 00:42:07 437.505
UNISAT 6 30 Nov 00:41:58 00:46:16 47° 287° (WNW) 00:50:40 437.425
CUSAT 1 30 Nov 00:42:07 00:47:17 82° 81° (E) 00:54:12 437.405
POLYITAN 1 30 Nov 00:42:54 00:47:05 65° 285° (WNW) 00:51:17 437.675
QB50P2 30 Nov 00:43:16 00:47:28 64° 285° (WNW) 00:51:39 145.880/145.840
DUCHIFAT 1 30 Nov 00:46:36 00:50:45 59° 286° (WNW) 00:54:54 145.980
ISS 30 Nov 00:48:39 00:51:16 21° 337° (NNW) 00:53:53 145.825
TISAT 1 30 Nov 00:50:11 00:54:27 90° 181° (S) 00:58:44 437.305
BEESAT 30 Nov 00:57:00 01:00:07 18° 64° (ENE) 01:03:14 436.000
BUGSAT 1 30 Nov 01:06:42 01:10:31 41° 288° (WNW) 01:14:18 437.445
NANOSAT C BR1 30 Nov 01:07:00 01:10:50 35° 289° (WNW) 01:14:39 145.865
ANTELSAT 30 Nov 01:11:48 01:15:24 24° 292° (WNW) 01:19:04 437.575/2403.000
SPROUT 30 Nov 01:12:54 01:17:09 58° 260° (W) 01:21:24 437.525
RS-15 30 Nov 01:13:36 01:24:42 61° 51° (NE) 01:36:15 29.354- 29.394
QB50P1 30 Nov 01:17:43 01:21:17 27° 291° (WNW) 01:24:50 145.935-145.965
DANDE 30 Nov 01:26:19 01:31:11 49° 263° (W) 01:37:39 436.750
POPSAT HIP 1 30 Nov 01:44:04 01:46:28 15° 295° (WNW) 01:48:53 437.405
ITUPSAT 1 30 Nov 01:53:17 01:58:02 61° 73° (ENE) 02:02:48 437.325
YUBILEINY 30 Nov 01:54:57 02:00:38 19° 78° (ENE) 02:06:18 435.215
KKS-1 30 Nov 01:55:38 01:57:44 13° 63° (ENE) 01:59:50 437.445
MaSat-1 30 Nov 01:56:30 01:57:08 11° 252° (WSW) 01:57:47 437.345
AUBIESAT-1 30 Nov 02:01:21 02:05:29 68° 254° (WSW) 02:10:02 437.475
SWISSCUBE 30 Nov 02:02:31 02:07:19 84° 76° (ENE) 02:12:09 437.505
M-CUBED/EXP-1 PRIME 30 Nov 02:09:43 02:13:45 49° 256° (WSW) 02:18:09 437.505
Oscar 19 30 Nov 02:09:47 02:13:56 24° 94° (E) 02:18:05 437.125/150
CUSAT 1 30 Nov 02:27:39 02:30:14 13° 270° (W) 02:33:04 437.405
ISS 30 Nov 02:27:42 02:28:52 11° 358° (N) 02:30:02 145.825
BEESAT 30 Nov 02:32:52 02:37:32 52° 260° (W) 02:42:14 436.000
STARS 30 Nov 02:40:52 02:44:31 26° 68° (ENE) 02:48:11 437.465
ITAMSAT 1 30 Nov 03:11:42 03:16:25 35° 97° (E) 03:21:06 435.822/435.867
RS-15 30 Nov 03:26:30 03:36:38 40° 252° (WSW) 03:47:11 29.354- 29.394
KKS-1 30 Nov 03:29:28 03:33:52 61° 259° (W) 03:38:16 437.445
ITUPSAT 1 30 Nov 03:33:53 03:36:18 14° 269° (W) 03:38:44 437.325
Oscar 19 30 Nov 03:48:35 03:53:23 40° 290° (WNW) 03:58:10 437.125/150
SO-50 30 Nov 03:49:04 03:53:29 60° 118° (ESE) 03:58:04 436.795
BEESAT 3 30 Nov 03:58:07 04:00:31 15° 42° (NE) 04:02:55 437.485
